Location: Newark
(52.4787°S, 179.0532°W)
Time: 03:00:39
(UTC+00:00)

Transit 2A Rocket - Pass Details

Date: 24 November 2019
Orbit: 594 x 909 km, 66.7° (Epoch: 09 December)

Event Time Altitude Azimuth Distance (km) Brightness Sun altitude
Rises 05:12:08 0° 221° (SW) 3,574 9.2 20.7°
Reaches altitude 10° 05:14:46 10° 226° (SW) 2,622 8.8 20.3°
Maximum altitude 05:20:40 50° 299° (WNW) 1,130 6.8 19.4°
Drops below altitude 10° 05:26:15 10° 12° (NNE) 2,486 7.5 18.6°
Sets 05:28:42 0° 17° (NNE) 3,373 8.1 18.2°
